Regional Weather Roundup
Issued by NWS

Home | Current Version | Previous Version | Graphics & Text | Print | Product List | Glossary On
Versions: 1 2 3 4 5 6 7 8 9 10 11 12 13 14 15 16 17 18 19 20 21 22 23 24 25 26 27 28 29 30 31 32 33 34 35 36 37 38 39 40 41 42 43 44 45 46 47 48 49 50
000
ASUS43 KLMK 050310
RWRKY
KENTUCKY REGIONAL WEATHER ROUNDUP
NATIONAL WEATHER SERVICE LOUISVILLE KY
1100 PM EDT MON MAY 04 2015

NOTE "FAIR" INDICATES FEW OR NO CLOUDS BELOW 12,000 FEET
WITH NO SIGNIFICANT WEATHER AND/OR OBSTRUCTIONS TO VISIBILITY.

KYZ001>023-026-027-061>063-070>075-050400-
WESTERN AND SOUTH CENTRAL KENTUCKY

CITY           SKY/WX    TMP DP  RH WIND       PRES   REMARKS
PADUCAH        CLEAR     70  54  56 S6        30.15R
HENDERSON      CLEAR     70  54  56 S6        30.17R
OWENSBORO      CLEAR     70  59  68 S7        30.19R
HOPKINSVILLE   CLEAR     72  55  54 S7        30.19R
BOWLING GREEN  CLEAR     67  56  67 CALM      30.21R
GLASGOW        CLEAR     64  55  72 CALM      30.22R
$$

KYZ024-025-028>034-038-045-046-053-050400-
NORTH CENTRAL KENTUCKY

CITY           SKY/WX    TMP DP  RH WIND       PRES   REMARKS
LOUISVILLE/SDF PTCLDY    73  56  54 S6        30.19R
LOUISVILLE/LOU PTCLDY    72  56  57 CALM      30.20R
FORT KNOX      CLEAR     66  55  68 CALM      30.19S
$$

KYZ035>037-039>044-047>052-055>060-089>105-050400-
NORTHEAST KENTUCKY

CITY           SKY/WX    TMP DP  RH WIND       PRES   REMARKS
LEXINGTON      CLEAR     68  55  63 S6        30.23R
COVINGTON      FAIR      67  57  70 CALM      30.20R
FRANKFORT      PTCLDY    67  55  65 S5        30.20R
$$

KYZ054-064>069-076>088-106>120-050400-
SOUTHEAST KENTUCKY

CITY           SKY/WX    TMP DP  RH WIND       PRES   REMARKS
JACKSON        CLEAR     71  46  40 CALM      30.25R
LONDON         CLEAR     64  51  62 CALM      30.25R
SOMERSET       CLEAR     61  52  72 CALM      30.26R
MIDDLESBORO    CLEAR     59  54  84 CALM      30.28R
MONTICELLO     CLEAR     58  54  86 CALM      30.28R
$$



USA.gov is the U.S. government's official web portal to all federal, state and local government web resources and services.